Location: Holcomb Observatory
(44.4922°N, 73.1654°W)
Time: 17:09:22
(UTC-04:00)

Daily predictions for brighter satellites

Satellite Brightness Start Highest point End
(mag) Time Altitude Azimuth Time Altitude Azimuth Time Altitude Azimuth
Meteor 1-27 Rocket 4.0 20:48:55 10° N 20:54:21 50° ENE 20:59:40 10° SSE
Resurs 01 Rocket 4.4 20:51:58 10° SW 20:54:53 17° W 20:57:49 10° NW
SL-27 R/B 2.8 20:53:19 10° NNW 20:56:59 73° WSW 21:00:34 10° SSE
Cosmos 1606 3.2 20:54:07 10° N 20:57:55 44° ENE 21:01:40 10° SSE
Cosmos 1340 Rocket 4.4 20:58:22 10° SW 21:02:10 41° WNW 21:06:01 10° N
Sich 1 Rocket 3.8 20:57:47 10° S 21:02:15 56° E 21:06:45 10° NNE
SL-08 ROCKET BODY 4.4 20:58:19 10° S 21:04:21 88° E 21:10:18 10° N
Cosmos 1356 Rocket 4.2 21:01:22 10° SSW 21:05:33 58° WNW 21:09:50 10° N
Cosmos 1892 3.5 21:01:56 10° SSW 21:05:42 55° WNW 21:09:30 10° N
Cosmos 1782 3.0 21:04:46 10° N 21:08:48 81° W 21:12:50 10° S
NOSS 2-2 (E) 4.3 21:04:36 10° SW 21:08:49 61° NW 21:13:52 10° NNE
Envisat 3.0 21:07:14 10° SSE 21:12:17 73° ENE 21:17:22 10° N
COSMOS 2487 3.0 21:11:29 10° N 21:15:00 46° ENE 21:18:09 12° SE
CZ-4 DEB 4.2 21:12:58 10° SSW 21:15:55 36° W 21:18:54 10° NNW
Cosmos 2341 Rocket 4.3 21:11:19 10° SSE 21:17:21 51° E 21:23:23 10° NNE
Cosmos 1975 Rocket 3.6 21:15:22 10° N 21:19:28 41° ENE 21:23:14 12° SE
Coronas F rocket 4.0 21:19:12 10° SW 21:21:21 22° WNW 21:23:31 10° NNW
Cosmos 1939 Rocket 3.0 21:18:54 10° S 21:22:46 75° WSW 21:26:44 10° NNW
TIMED 4.4 21:19:28 10° SSW 21:23:48 73° ESE 21:28:11 10° NNE
ATLAS 5 CENTAUR R/B 3.8 21:22:02 10° NW 21:27:22 33° WSW 21:32:59 10° S
ARGOS 3.9 21:23:42 13° SE 21:28:07 38° ENE 21:33:03 10° N
Cosmos 407 Rocket 4.1 21:23:42 10° NNW 21:28:52 57° WSW 21:34:04 10° S
Timation 2 Rocket 4.1 21:23:28 10° NNW 21:29:24 57° ENE 21:34:22 15° SE
ERS-1 Rocket 3.7 21:25:01 10° S 21:29:56 54° W 21:34:53 10° NNW
Cosmos 2084 3.1 21:26:47 10° SSW 21:30:35 61° SE 21:34:22 10° NE
Cosmos 1908 Rocket 3.6 21:26:27 10° S 21:30:52 88° E 21:35:20 10° N
Cosmos 1378 Rocket 3.5 21:27:14 10° N 21:31:34 86° ENE 21:35:54 10° S
NOSS 5 (C) 4.1 21:29:47 10° SSW 21:33:08 75° SE 21:36:14 10° NE
Cosmos 1140 Rocket 3.6 21:29:48 10° NNW 21:34:56 65° ENE 21:39:06 15° SSE
deb Chang Zheng 4 3.7 21:31:32 10° NNE 21:35:58 84° WNW 21:40:23 10° SSW
H-2A R/B 3.4 21:32:36 13° ESE 21:36:14 25° ENE 21:40:30 10° N
BREEZE-M DEB 4.4 21:33:09 10° SW 21:37:41 71° SSE 21:40:35 10° ENE
USA 234 4.4 21:34:32 10° ENE 21:39:01 19° ESE 21:43:28 10° SSE
Cosmos 1452 Rocket 3.6 21:35:51 10° SSW 21:41:07 87° WNW 21:46:27 10° NNE
Nimbus 7 Rocket 4.4 21:35:20 10° NNE 21:41:18 85° ESE 21:47:18 10° SSW
Cosmos 2154 Rocket 4.1 21:37:40 10° S 21:43:53 82° W 21:50:08 10° N
USA 245 3.4 21:44:18 21° SE 21:46:21 54° ENE 21:50:25 10° N
YAOGAN 6 2.4 21:44:08 18° SSE 21:46:38 75° ENE 21:50:09 10° N
CZ-4B R/B 3.8 21:42:40 10° NNE 21:47:24 44° E 21:51:12 15° SSE
Cosmos 1242 Rocket 2.6 21:44:32 10° N 21:48:11 66° ENE 21:50:30 21° SSE
Cosmos 1833 Rocket 3.5 21:43:02 10° NNW 21:48:17 39° NE 21:52:00 18° ESE
Cosmos 1408 2.7 21:44:58 10° SSW 21:48:38 76° W 21:52:17 10° N
SPOT 1/Viking Rocket 3.6 21:47:24 17° SSE 21:51:25 68° ENE 21:56:37 10° N
Cosmos 2278 Rocket 2.2 21:45:47 10° SSW 21:51:27 84° ESE 21:57:10 10° NNE
CZ-4 SHROUD 3.2 21:50:45 20° S 21:52:47 75° WSW 21:55:53 10° NNW
Cosmos 1825 2.5 21:49:13 10° SSW 21:53:00 67° W 21:56:50 10° N
Cosmos 1844 Rocket 3.8 21:49:15 10° SW 21:54:41 48° WNW 22:00:10 10° NNE
Intercosmos 25 3.0 21:52:53 18° S 21:55:20 58° E 21:58:26 10° NNE
Cosmos 1844 4.3 21:50:44 10° SW 21:56:26 62° WNW 22:02:13 10° NNE
PSLV R/B 3.5 21:55:39 19° S 21:57:32 56° W 22:00:27 10° NNW
MetOp-A 4.3 21:52:40 12° S 21:57:34 75° WSW 22:02:56 10° NNW
Cosmos 2151 Rocket 4.3 21:56:02 22° SE 21:58:19 37° E 22:02:30 10° NNE
Landsat 7 4.4 21:57:13 22° SE 21:59:50 42° ENE 22:04:19 10° N
H-2A R/B 3.4 21:56:12 10° SSW 22:00:11 36° W 22:04:06 10° NNW
Cosmos 1184 Rocket 3.4 21:59:47 10° SSW 22:03:04 57° WNW 22:06:24 10° N
Meteor 1-14 Rocket 4.3 21:58:45 14° S 22:03:31 59° E 22:09:00 10° NNE
SL-8 R/B 4.3 22:00:36 10° W 22:05:22 57° N 22:10:07 10° ENE
Cosmos 2082 Rocket 2.3 22:04:00 10° NNW 22:09:43 68° ENE 22:13:01 26° SE
Cosmos 2366 rocket 4.1 22:07:19 18° SSE 22:11:53 58° E 22:18:05 10° NNE
Cosmos 1850 Rocket 4.1 22:06:43 10° NNW 22:12:04 82° WSW 22:15:25 24° SSE
Cosmos 1238 Rocket 4.2 22:12:28 10° NNW 22:15:20 29° W 22:18:32 10° SSW
Cosmos 1812 3.7 22:11:54 10° N 22:15:25 31° ENE 22:16:16 28° ESE
Terra 2.4 22:13:28 26° ESE 22:15:33 42° ENE 22:20:03 10° N
ISS -3.2 22:14:24 10° WSW 22:17:39 74° NNW 22:20:56 10° ENE
SL-08 RB Rocket 3.7 22:17:17 27° SSE 22:19:49 90° SW 22:24:30 10° NNW
SPOT 5 4.2 22:15:53 10° SSW 22:20:49 40° W 22:25:51 10° NNW
Okean 1 Rocket 4.3 22:20:59 24° E 22:21:30 24° E 22:25:08 10° NE
USA 229 DEB 3.8 22:18:04 10° NW 22:25:12 82° NE 22:29:26 27° SE
USA 229 3.8 22:18:10 10° NW 22:25:19 82° NE 22:29:32 27° SE
Cosmos 2297 3.6 22:20:49 10° SSW 22:26:31 83° ESE 22:32:17 10° NNE
NOSS 1 (D) 4.5 22:26:54 10° NW 22:29:59 73° NE 22:30:15 66° E
Okean 2 Rocket 4.1 22:26:02 10° SSW 22:30:15 44° WNW 22:34:30 10° N
Cosmos 1741 Rocket 4.4 22:27:16 10° NNW 22:32:23 56° WSW 22:35:16 25° S
DMSP B5D2-2 4.4 22:27:40 10° NNE 22:32:43 47° E 22:34:30 34° SSE
Lacrosse 5 3.8 22:38:29 14° E 22:38:29 14° E 22:39:33 10° ENE
Gbstr 26 Del rocket 3.7 22:32:53 10° WNW 22:37:56 53° NNE 22:40:12 26° E
Cosmos 2218 Rocket 4.1 22:33:57 15° SSW 22:39:26 79° W 22:45:53 10° N
Cosmos 1331 Rocket 4.2 22:42:01 39° SSE 22:43:22 48° ESE 22:48:19 10° NNE
ASTEX 1 3.8 22:39:28 10° NNE 22:44:15 45° E 22:45:20 39° SE
CZ-4C R/B 3.4 22:43:58 45° S 22:45:03 73° WSW 22:49:11 10° NNW
BREEZE-M DEB (TANK) 3.6 22:38:18 10° WNW 22:47:09 39° SW 22:48:20 32° SSW
Timation 1 Rocket 4.3 22:44:33 28° S 22:47:46 62° ESE 22:53:41 10° NNE
Cosmos 1110 Rocket 4.0 22:48:01 37° S 22:49:57 64° ESE 22:55:07 10° NNE
BREEZE-M DEB (TANK) 3.4 22:49:18 10° WNW 22:51:25 33° N 22:55:32 10° ENE
Cosmos 1727 Rocket 4.1 22:46:36 10° NNW 22:52:46 75° W 22:56:01 30° S
DELTA 2 DEB (DPAF) 4.5 22:51:58 37° SSW 22:53:32 60° W 22:57:59 10° NNW
AVUM R/B 3.3 22:50:37 10° NNW 22:54:10 77° WSW 22:54:13 76° SW
Cosmos 1400 Rocket 4.2 22:59:55 26° ENE 22:59:55 26° ENE 23:02:51 10° NNE
CARTOSAT-1 3.7 22:58:42 48° SSW 22:59:46 68° W 23:04:05 10° NNW
Cosmos 1536 4.4 23:00:35 22° ENE 23:00:35 22° ENE 23:03:02 10° NE
Cosmos 2369 Rocket 3.6 23:00:27 22° E 23:00:27 22° E 23:04:07 10° NE
Meteor 2-19 Rocket 4.5 23:00:06 27° SSW 23:03:38 80° W 23:09:46 10° N
ATLAS 2AS CENTAUR R/B 4.5 22:56:48 10° NNW 23:03:55 31° NNE 23:10:49 10° E
NOSS 3-1 (C) 4.1 23:06:19 10° NW 23:13:46 71° NE 23:17:46 33° SE
Cosmos 1486 Rocket 4.0 23:08:30 10° NNW 23:13:52 81° ENE 23:15:08 53° SE
Meteor 1-20 Rocket 4.4 23:11:44 30° SSW 23:14:31 70° WNW 23:20:03 10° N
H-2A R/B 2.7 23:13:15 32° SSW 23:15:21 49° W 23:20:31 10° NNW
Okean 1 3.9 23:18:13 10° NNW 23:22:10 49° W 23:22:36 47° WSW
USA 234 3.1 23:16:12 10° NE 23:22:45 73° SE 23:29:16 10° SW
Cosmos 1633 3.9 23:24:50 31° NE 23:24:50 31° NE 23:27:15 10° NNE
Cosmos 1892 Rocket 4.4 23:19:58 10° N 23:24:02 37° ENE 23:24:02 37° ENE
Cosmos 1821 Rocket 4.0 23:27:02 48° SSE 23:28:45 69° E 23:34:57 10° NNE
Cosmos 1833 Rocket 3.7 23:27:06 10° NW 23:32:07 34° WSW 23:33:42 29° SW
Cosmos 2084 Rocket 4.5 23:31:18 10° NNW 23:34:51 33° NE 23:35:13 33° NE
Cosmos 2285 Rocket 4.2 23:34:44 47° SE 23:35:41 51° ESE 23:41:51 10° NNE
Cosmos 1943 Rocket 4.0 23:37:08 17° E 23:37:08 17° E 23:39:45 10° ENE
Meteor 2-21 Rocket 4.4 23:39:07 53° SSE 23:40:38 77° E 23:46:51 10° NNE
Cosmos 1934 Rocket 3.9 23:40:23 55° SSE 23:41:40 72° E 23:47:43 10° NNE
Meteor 2-16 Rocket 4.5 23:41:16 54° SE 23:42:27 65° E 23:48:30 10° NNE
Cosmos 2123 Rocket 4.0 23:37:59 10° N 23:44:16 71° E 23:45:41 53° SE
Cosmos 1302 Rocket 4.0 23:43:58 58° SSW 23:45:02 83° WNW 23:50:22 10° NNE
SL-8 R/B 4.1 23:43:36 10° WNW 23:48:22 59° N 23:50:07 36° ENE
Cosmos 1025 Rocket 3.0 23:44:21 10° NNW 23:48:39 77° W 23:48:39 77° W
Cosmos 1602 4.2 23:49:21 58° NW 23:49:21 58° NW 23:52:52 10° N
Cosmos 2082 Rocket 4.0 23:49:23 10° WNW 23:53:11 19° W 23:54:52 16° WSW
Cosmos 1455 Rocket 3.9 23:53:59 40° ENE 23:53:59 40° ENE 23:57:23 10° NNE
Terra 3.5 23:52:21 21° WSW 23:53:27 23° W 23:57:14 10° NW
ALOS 2 3.2 23:53:52 47° ENE 23:53:52 47° ENE 23:57:58 10° N
ISS -1.0 23:51:42 10° WNW 23:54:28 25° N 23:57:15 10° NE
